Location: Clifton Park
(41.4873°N, 81.8024°W)
Time: 16:36:18
(UTC+00:00)

Cosmos 2369 - Pass Details

Date: 21 January 2020
Orbit: 839 x 856 km, 71.0° (Epoch: 20 February)

Event Time Altitude Azimuth Distance (km) Brightness Sun altitude
Exits shadow 11:05:07 33° 299° (WNW) 1,418 4.3 -19.1°
Maximum altitude 11:05:19 33° 303° (WNW) 1,415 4.4 -19.1°
Drops below altitude 10° 11:10:27 10° 7° (N) 2,497 6.1 -18.2°
Sets 11:13:11 0° 17° (NNE) 3,436 6.9 -17.7°
